Flag for Germany Weather past 2 weeks in Langen, Hesse, Germany

Now
41 °F

Clear.


Feels Like: 41 °F
Forecast: 49 / 67 °F
Wind: 1 mph from North

Location: Frankfurt-M-Flughafen Airport

Current Time: May 28, 2015 at 6:28:58 AM

Latest Report: May 28, 2015 at 5:20 AM


Visibility: 10 mi

Pressure: 30.09 "Hg

Humidity: 93%

Dew point: 39 °F

Location of LangenLocation

Historic Weather in Langen — Graph

°F

Langen temperature yesterday

Maximum temperature yesterday: 59 °F (at 3:20 PM)
Minimum temperature yesterday: 39 °F (at 3:50 AM)
Average temperature yesterday: 50 °F

Past Weeks' High & Low Weather Summary

 TemperatureHumidityPressure
High73 °F (May 18, 3:20 PM)94% (May 13, 8:50 PM)30.33 "Hg (May 13, 8:50 PM)
Low39 °F (May 22, 4:50 AM)23% (May 18, 3:20 PM)29.68 "Hg (May 18, 7:20 PM)
Average58 °F59%30.05 "Hg
* Reported May 13 4:20 AM — May 28 4:50 AM, Langen, Weather by CustomWeather, © 2015

Note: Actual official high and low records may vary slightly from our data, if they occured in-between our weather recording intervals... More about our weather records

Advertising

Langen weather history for previous 24 hours

 ConditionsComfort  
Time TempWeatherWind HumidityBarometerVisibility
4:50 AM
Thu, May 28
43 °FClear.2 mph87%30.09 "Hg10 mi
4:20 AM43 °FClear.1 mph87%30.09 "Hg10 mi
3:50 AM41 °FClear.No wind93%30.09 "Hg10 mi
3:20 AM41 °FClear.No wind87%30.12 "Hg10 mi
2:50 AM39 °FClear.2 mph93%30.12 "Hg10 mi
2:20 AM39 °FLight fog.2 mph93%30.12 "HgN/A
1:50 AM41 °FClear.1 mph87%30.12 "Hg10 mi
1:20 AM41 °FClear.2 mph87%30.12 "Hg10 mi
12:50 AM41 °FClear.2 mph87%30.15 "Hg10 mi
12:20 AM43 °FClear.No wind81%30.15 "Hg10 mi
11:50 PM
Wed, May 27
43 °FClear.No wind81%30.15 "Hg10 mi
11:20 PM45 °FClear.1 mph81%30.15 "Hg10 mi
10:50 PM45 °FClear.2 mph81%30.15 "Hg10 mi
10:20 PM46 °FPassing clouds.5 mph76%30.18 "HgN/A
9:50 PM48 °FSunny.5 mph71%30.18 "Hg10 mi
9:20 PM50 °FPassing clouds.3 mph67%30.18 "HgN/A
8:50 PM54 °FPassing clouds.3 mph58%30.18 "HgN/A
8:20 PM57 °FSunny.2 mph44%30.18 "Hg10 mi
7:50 PM59 °FPassing clouds.5 mph39%30.18 "HgN/A
7:20 PM59 °FPassing clouds.6 mph39%30.18 "HgN/A
6:50 PM59 °FPartly sunny.3 mph42%30.21 "HgN/A
6:20 PM59 °FPartly sunny.5 mph39%30.21 "HgN/A
5:50 PM59 °FPartly sunny.5 mph39%30.21 "HgN/A
5:20 PM59 °FPartly sunny.7 mph42%30.21 "HgN/A
4:50 PM59 °FPartly sunny.2 mph39%30.21 "HgN/A
4:20 PM59 °FPartly sunny.3 mph42%30.21 "HgN/A
3:50 PM59 °FPartly sunny.6 mph42%30.21 "HgN/A
3:20 PM59 °FPartly sunny.3 mph45%30.24 "HgN/A
2:50 PM57 °FPartly sunny.5 mph44%30.24 "HgN/A
2:20 PM57 °FPartly sunny.6 mph48%30.24 "HgN/A
1:50 PM57 °FPartly sunny.5 mph48%30.24 "HgN/A
1:20 PM55 °FPartly sunny.5 mph51%30.24 "HgN/A
12:50 PM55 °FPartly sunny.6 mph55%30.24 "HgN/A
12:20 PM55 °FPartly sunny.3 mph51%30.24 "HgN/A
11:50 AM54 °FBroken clouds.3 mph54%30.27 "HgN/A
11:20 AM54 °FBroken clouds.5 mph58%30.27 "HgN/A
10:50 AM52 °FBroken clouds.3 mph62%30.27 "HgN/A
10:20 AM54 °FBroken clouds.6 mph63%30.27 "HgN/A
9:50 AM52 °FBroken clouds.3 mph67%30.27 "HgN/A
9:20 AM52 °FPartly sunny.3 mph72%30.27 "HgN/A
8:50 AM50 °FPartly sunny.3 mph76%30.27 "HgN/A
8:20 AM48 °FPartly sunny.1 mph76%30.24 "HgN/A
7:50 AM46 °FPartly sunny.3 mph87%30.24 "HgN/A
7:20 AM46 °FPartly sunny.2 mph82%30.24 "HgN/A
6:50 AM45 °FPartly sunny.1 mph87%30.24 "HgN/A
6:20 AM43 °FPassing clouds.2 mph87%30.24 "HgN/A
Weather by CustomWeather, © 2015

See weather overviewHow to use our weather pages